Location: Carbonear
(47.7333°N, 53.2500°W)
Time: 21:27:03
(UTC+00:00)

STRAND 1 - Pass Details

Date: 06 December 2022
Orbit: 768 x 779 km, 98.4° (Epoch: 01 February)

Event Time Altitude Azimuth Distance (km) Brightness Sun altitude
Rises 10:03:25 0° 184° (S) 3,240 ? -10.2°
Reaches altitude 10° 10:05:50 10° 191° (SSW) 2,316 ? -9.8°
Maximum altitude 10:10:40 42° 262° (W) 1,098 ? -9.1°
Drops below altitude 10° 10:15:31 10° 333° (NNW) 2,325 ? -8.3°
Sets 10:17:58 0° 341° (NNW) 3,255 ? -8.0°
